TimeCST,TemperatureF,Dew PointF,Humidity,Sea Level PressureIn,VisibilityMPH,Wind Direction,Wind SpeedMPH,Gust SpeedMPH,PrecipitationIn,Events,Conditions,WindDirDegrees,DateUTC
12:15 AM,56.3,54.5,94,30.02,7.0,WSW,11.5,-,N/A,Rain,Rain,250,2012-11-23 06:15:00
12:35 AM,56.5,54.5,93,30.02,10.0,West,11.5,17.3,0.01,,Overcast,260,2012-11-23 06:35:00
12:55 AM,56.5,54.3,92,30.03,10.0,West,13.8,-,0.01,,Mostly Cloudy,260,2012-11-23 06:55:00
1:15 AM,56.7,54.5,92,30.03,10.0,West,12.7,19.6,N/A,,Mostly Cloudy,280,2012-11-23 07:15:00
1:35 AM,56.5,53.2,89,30.05,10.0,WNW,17.3,23.0,N/A,,Overcast,300,2012-11-23 07:35:00
1:55 AM,54.7,49.6,83,30.06,10.0,NW,18.4,24.2,N/A,,Overcast,320,2012-11-23 07:55:00
2:15 AM,52.3,44.6,75,30.08,10.0,NW,19.6,27.6,N/A,,Overcast,320,2012-11-23 08:15:00
2:35 AM,50.0,41.7,73,30.09,10.0,NW,17.3,24.2,N/A,,Mostly Cloudy,320,2012-11-23 08:35:00
2:55 AM,49.3,41.9,76,30.10,10.0,NW,11.5,19.6,N/A,,Clear,310,2012-11-23 08:55:00
3:15 AM,48.2,41.9,79,30.11,10.0,NW,10.4,-,N/A,,Clear,310,2012-11-23 09:15:00
3:35 AM,46.9,40.5,78,30.12,10.0,NW,16.1,25.3,N/A,,Clear,310,2012-11-23 09:35:00
3:55 AM,45.7,39.0,78,30.12,10.0,NW,12.7,18.4,N/A,,Clear,310,2012-11-23 09:55:00
4:15 AM,44.8,37.9,77,30.12,10.0,NW,11.5,-,N/A,,Scattered Clouds,310,2012-11-23 10:15:00
4:35 AM,44.1,37.4,77,30.12,10.0,NW,9.2,-,N/A,,Clear,310,2012-11-23 10:35:00
4:55 AM,43.0,37.6,81,30.13,10.0,WNW,8.1,-,N/A,,Clear,300,2012-11-23 10:55:00
5:15 AM,42.4,37.0,81,30.13,10.0,WNW,9.2,-,N/A,,Clear,290,2012-11-23 11:15:00
5:35 AM,41.5,36.7,83,30.13,10.0,West,6.9,-,N/A,,Clear,280,2012-11-23 11:35:00
5:55 AM,41.4,36.7,83,30.14,10.0,West,8.1,-,N/A,,Clear,270,2012-11-23 11:55:00
6:15 AM,41.5,36.1,81,30.14,10.0,West,8.1,-,N/A,,Clear,270,2012-11-23 12:15:00
6:35 AM,42.1,35.1,76,30.14,10.0,WNW,9.2,-,N/A,,Clear,290,2012-11-23 12:35:00
6:55 AM,41.7,34.7,76,30.16,10.0,West,9.2,-,N/A,,Clear,280,2012-11-23 12:55:00
7:15 AM,42.1,34.9,76,30.16,10.0,West,10.4,-,N/A,,Clear,280,2012-11-23 13:15:00
7:35 AM,42.6,35.2,75,30.16,10.0,West,10.4,-,N/A,,Clear,280,2012-11-23 13:35:00
7:55 AM,43.5,35.4,73,30.17,10.0,WNW,12.7,21.9,N/A,,Clear,290,2012-11-23 13:55:00
8:15 AM,44.1,35.6,72,30.18,10.0,WNW,15.0,20.7,N/A,,Clear,290,2012-11-23 14:15:00
8:35 AM,44.6,35.6,71,30.18,10.0,NW,16.1,23.0,N/A,,Clear,310,2012-11-23 14:35:00
8:55 AM,45.1,36.1,71,30.19,10.0,WNW,17.3,25.3,N/A,,Scattered Clouds,300,2012-11-23 14:55:00
9:15 AM,44.6,35.4,70,30.20,10.0,WNW,16.1,21.9,N/A,,Overcast,300,2012-11-23 15:15:00
9:35 AM,45.5,34.9,66,30.20,10.0,NW,16.1,21.9,N/A,,Mostly Cloudy,310,2012-11-23 15:35:00
9:55 AM,45.7,34.5,65,30.21,10.0,NW,17.3,26.5,N/A,,Scattered Clouds,310,2012-11-23 15:55:00
10:15 AM,43.9,33.1,66,30.21,10.0,WNW,18.4,24.2,N/A,,Mostly Cloudy,300,2012-11-23 16:15:00
10:35 AM,43.7,32.2,64,30.22,10.0,WNW,18.4,26.5,N/A,,Overcast,300,2012-11-23 16:35:00
10:55 AM,44.1,31.1,60,30.21,10.0,WNW,23.0,29.9,N/A,,Mostly Cloudy,300,2012-11-23 16:55:00
11:15 AM,45.0,30.9,58,30.21,10.0,WNW,23.0,31.1,N/A,,Scattered Clouds,290,2012-11-23 17:15:00
11:35 AM,45.5,31.5,58,30.20,10.0,WNW,20.7,26.5,N/A,,Scattered Clouds,290,2012-11-23 17:35:00
11:55 AM,45.9,31.5,57,30.20,10.0,WNW,18.4,26.5,N/A,,Clear,300,2012-11-23 17:55:00
12:15 PM,46.4,31.1,55,30.20,10.0,WNW,21.9,28.8,N/A,,Clear,300,2012-11-23 18:15:00
12:35 PM,45.9,30.9,56,30.20,10.0,WNW,18.4,27.6,N/A,,Scattered Clouds,290,2012-11-23 18:35:00
1:15 PM,45.7,28.6,51,30.20,10.0,NW,17.3,25.3,N/A,,Clear,310,2012-11-23 19:15:00
1:35 PM,45.3,28.4,52,30.21,10.0,WNW,20.7,28.8,N/A,,Clear,290,2012-11-23 19:35:00
1:55 PM,45.7,28.9,52,30.21,10.0,WNW,21.9,31.1,N/A,,Clear,300,2012-11-23 19:55:00
2:15 PM,44.8,27.9,52,30.22,10.0,NW,17.3,26.5,N/A,,Clear,310,2012-11-23 20:15:00
2:35 PM,43.7,25.0,48,30.22,10.0,NW,16.1,25.3,N/A,,Clear,320,2012-11-23 20:35:00
2:55 PM,43.7,26.1,50,30.23,10.0,WNW,19.6,26.5,N/A,,Clear,300,2012-11-23 20:55:00
3:15 PM,43.0,26.4,52,30.23,10.0,WNW,18.4,21.9,N/A,,Clear,300,2012-11-23 21:15:00
3:35 PM,42.3,26.2,53,30.23,10.0,NW,11.5,-,N/A,,Clear,320,2012-11-23 21:35:00
3:55 PM,41.5,26.1,54,30.24,10.0,NW,11.5,19.6,N/A,,Clear,320,2012-11-23 21:55:00
4:15 PM,40.5,24.4,53,30.25,10.0,NW,13.8,20.7,N/A,,Clear,310,2012-11-23 22:15:00
4:35 PM,39.0,24.4,56,30.25,10.0,NW,10.4,-,N/A,,Clear,320,2012-11-23 22:35:00
4:55 PM,37.9,25.0,60,30.26,10.0,NW,8.1,-,N/A,,Clear,320,2012-11-23 22:55:00
5:15 PM,37.0,25.3,63,30.27,10.0,NW,6.9,-,N/A,,Clear,310,2012-11-23 23:15:00
5:35 PM,36.1,25.5,65,30.28,10.0,WNW,6.9,-,N/A,,Clear,300,2012-11-23 23:35:00
5:55 PM,37.0,25.7,64,30.28,10.0,WNW,12.7,-,N/A,,Clear,300,2012-11-23 23:55:00
6:15 PM,36.3,24.1,61,30.29,10.0,NW,12.7,18.4,N/A,,Clear,310,2012-11-24 00:15:00
6:35 PM,35.6,23.9,62,30.30,10.0,NW,9.2,-,N/A,,Clear,320,2012-11-24 00:35:00
6:55 PM,35.2,24.1,64,30.30,10.0,NW,9.2,-,N/A,,Clear,310,2012-11-24 00:55:00
7:15 PM,34.5,23.9,65,30.31,10.0,NW,9.2,-,N/A,,Clear,310,2012-11-24 01:15:00
7:35 PM,34.3,23.9,66,30.31,10.0,NW,10.4,-,N/A,,Clear,310,2012-11-24 01:35:00
7:55 PM,33.6,23.9,68,30.31,10.0,NW,9.2,-,N/A,,Clear,310,2012-11-24 01:55:00
8:15 PM,33.8,23.7,67,30.31,10.0,NW,11.5,17.3,N/A,,Clear,320,2012-11-24 02:15:00
8:35 PM,33.4,22.8,65,30.32,10.0,NW,10.4,19.6,N/A,,Clear,320,2012-11-24 02:35:00
8:55 PM,32.9,23.0,67,30.31,10.0,NW,9.2,-,N/A,,Clear,320,2012-11-24 02:55:00
9:15 PM,32.4,22.6,67,30.31,10.0,NW,11.5,-,N/A,,Clear,320,2012-11-24 03:15:00
9:35 PM,32.0,22.8,69,30.31,10.0,NW,10.4,-,N/A,,Clear,320,2012-11-24 03:35:00
9:55 PM,31.8,22.8,69,30.31,10.0,NW,8.1,-,N/A,,Clear,320,2012-11-24 03:55:00
10:15 PM,31.6,22.6,69,30.32,10.0,NW,9.2,-,N/A,,Clear,310,2012-11-24 04:15:00
10:35 PM,32.0,23.0,69,30.32,10.0,NW,6.9,-,N/A,,Clear,310,2012-11-24 04:35:00
10:55 PM,30.6,22.5,72,30.32,10.0,NW,8.1,-,N/A,,Clear,310,2012-11-24 04:55:00
11:15 PM,30.2,22.1,72,30.32,10.0,NW,8.1,-,N/A,,Clear,320,2012-11-24 05:15:00
11:35 PM,30.4,21.7,70,30.31,10.0,NW,8.1,-,N/A,,Clear,320,2012-11-24 05:35:00
11:55 PM,29.3,22.1,75,30.31,10.0,WNW,6.9,-,N/A,,Clear,300,2012-11-24 05:55:00